Update 08.04.19 Menü aufgeräumt und Stützis neue Wetterseite verlinkt
Besuchen Sie den Menüpunkt "Almanach / History" hier gibt es viele interessante Statistiken aus den Daten meiner Wetterstation (seit 2011)

Rindlberg West Mehr Informationen Rindlberg West


Stuetzi - Rindlberg Ost Mehr Informationen Stuetzi - Rindlberg Ost


Regenradar Mehr Informationen rain snow radar


Sie finden meine Wetter-Infos auch auf:

Weather Underground

AWEKAS



Wählen sie eine andere Periode ( ausblenden )

Einheiten Zeitraum Benutzerdef. Zeitraum Direkt zu
metrisch Englisch Beide
Täglich Wöchentlich Monatlich Jährlich
Beide Datumseingaben nutzen um einen Bereich festzulegen
vorheriger Tag
Mit diesem Datum

WU Grafiken für diese Periode ( klicken )


Täglich Zusammenfassung für Montag 19 August 2019
Zeit Temp. ( °C ) Taupt. ( °C ) Wind ( km/h ) von Windböen ( km/h ) Luftdruck ( hPa ) Luftf.( % ) Regenrate ( cm )
Hoch22,2 15,9 20,9 NNW ( 377/1356 ) 35,4 1023,9 80 2,00
Durchchnittswerte18,6 13,1 5,0 Windstille #99/269 9,0 1021,4 71 3,10
Tief14,5 9,9 -   0,0 1016,8 61 -
Täglich tabellarische Details für Montag 19 August 2019
Zeit Temp. ( °C ) Taupt. ( °C ) Wind ( km/h ) von Windböen ( km/h ) Luftdruck ( hPa ) Luftf.( % ) Regenrate ( cm )
00:00 15,8 10,1   Windstille 4,8 1017,8 69 -
00:05 15,8 10,3 4,8 Norden   1017,8 70 -
00:10 15,9 10,2   Windstille 4,8 1017,8 69 -
00:15 15,9 10,4   Windstille 4,8 1016,8 70 -
00:20 16,0 10,3   Windstille 4,8 1016,8 69 -
00:25 15,9 10,2   Windstille 4,8 1016,8 69 -
00:30 15,9 10,2 4,8 NNW   1016,8 69 -
00:35 15,8 10,1   Windstille 4,8 1016,8 69 -
00:40 15,8 10,3 3,2 NNW 4,8 1016,8 70 -
00:45 15,9 10,4   Windstille 6,4 1016,8 70 -
00:50 15,9 10,4   Windstille 6,4 1016,8 70 -
00:55 15,8 10,3   Windstille 6,4 1016,8 70 -
01:00 15,8 10,3   Windstille 4,8 1016,8 70 -
01:05 15,9 10,2   Windstille 6,4 1016,8 69 -
01:10 15,8 10,1 3,2 NNW 6,4 1016,8 69 -
01:15 15,8 10,1   Windstille 6,4 1016,8 69 -
01:20 15,8 10,1   Windstille 6,4 1016,8 69 -
01:25 15,8 10,1   Windstille 6,4 1016,8 69 -
01:30 15,7 10,0   Windstille   1016,8 69 -
01:35 15,6 9,9   Windstille   1016,8 69 -
01:40 15,6 10,1 4,8 NO   1016,8 70 -
01:45 15,6 10,1   Windstille 6,4 1016,8 70 -
01:50 15,7 10,2   Windstille 6,4 1016,8 70 -
01:55 15,7 10,5   Windstille 6,4 1016,8 71 -
02:00 15,8 10,3   Windstille 4,8 1016,8 70 -
02:05 15,8 10,6   Windstille   1016,8 71 -
02:10 15,8 10,6   Windstille   1016,8 71 -
02:15 15,9 10,6   Windstille   1016,8 71 -
02:20 16,0 11,0   Windstille   1016,8 72 -
02:25 16,1 11,1   Windstille   1016,8 72 -
02:30 16,2 11,1   Windstille   1016,8 72 -
02:35 16,3 11,2   Windstille   1016,8 72 -
02:40 16,4 11,5   Windstille   1016,8 73 -
02:45 16,4 11,5 9,7 NW   1016,8 73 -
02:50 16,6 11,5 9,7 Norden 8,0 1016,8 72 -
02:55 16,8 11,9 4,8 NNO 12,9 1016,8 73 0,30
03:00 16,9 12,2 4,8 Norden 12,9 1017,8 74 1,30
03:05 16,9 12,4 11,3 NNW 12,9 1017,8 75 1,50
03:10 17,0 12,3 8,0 NNW 14,5 1017,8 74 2,00
03:15 17,0 12,5 4,8 NNW 14,5 1017,8 75 2,00
03:20 17,0 12,5 4,8 NW 14,5 1017,8 75 2,00
03:25 17,0 12,5 9,7 Norden 12,9 1017,8 75 2,00
03:30 17,0 12,5 12,9 NW 11,3 1017,8 75 2,00
03:35 17,2 12,7 17,7 NNW 14,5 1017,8 75 2,00
03:40 17,3 12,8 9,7 NW 14,5 1017,8 75 2,00
03:45 17,4 12,9 8,0 NNW 17,7 1018,8 75 2,00
03:50 17,5 13,0 12,9 NNW 17,7 1018,8 75 2,00
03:55 17,5 13,0 9,7 NNW 17,7 1018,8 75 1,30
04:00 17,6 13,1 12,9 NNW 17,7 1018,8 75 0,50
04:05 17,6 13,3 9,7 Norden 14,5 1018,8 76 0,30
04:10 17,7 13,2 12,9 WNW 16,1 1018,8 75 -
04:15 17,7 13,2 12,9 NNW 16,1 1018,8 75 -
04:20 17,7 13,2 8,0 NNW 16,1 1018,8 75 -
04:25 17,7 13,2 14,5 NNW 19,3 1018,8 75 -
04:30 17,7 13,2 9,7 NNW 19,3 1018,8 75 -
04:35 17,7 13,2 16,1 NNW 19,3 1018,8 75 -
04:40 17,6 13,1 12,9 NW 14,5 1018,8 75 -
04:45 17,6 13,1 12,9 NNW 16,1 1018,8 75 -
04:50 17,6 13,1 6,4 NNW 16,1 1018,8 75 -
04:55 17,6 13,1 8,0 NW 16,1 1018,8 75 -
05:00 17,6 13,1 8,0 NW 16,1 1018,8 75 -
05:05 17,6 13,1 9,7 NW 16,1 1018,8 75 -
05:10 17,6 13,1 12,9 NNW 16,1 1018,8 75 -
05:15 17,7 13,2 14,5 NW 16,1 1019,9 75 -
05:20 17,7 13,2 17,7 NW 17,7 1019,9 75 -
05:25 17,7 13,2 14,5 NNW 17,7 1019,9 75 -
05:30 17,8 13,3 14,5 NNW 24,1 1019,9 75 -
05:35 17,8 13,5 17,7 Norden 24,1 1019,9 76 -
05:40 17,8 13,5 12,9 NNW 24,1 1019,9 76 -
05:45 17,7 13,4 16,1 NNW 24,1 1020,9 76 -
05:50 17,7 13,4 20,9 WNW 29,0 1020,9 76 -
05:55 17,6 13,7 17,7 NW 35,4 1020,9 78 -
06:00 17,5 13,6 17,7 NNW 35,4 1020,9 78 -
06:05 17,4 13,5 16,1 NW 27,4 1020,9 78 -
06:10 17,3 13,4 19,3 NNW 25,7 1020,9 78 -
06:15 17,3 13,4 12,9 NNW 24,1 1020,9 78 -
06:20 17,1 13,4 12,9 NNW 24,1 1020,9 79 -
06:25 17,1 13,4 9,7 Norden 19,3 1020,9 79 -
06:30 17,0 13,3 12,9 NNW 17,7 1020,9 79 -
06:35 17,0 13,3 12,9 NW 17,7 1020,9 79 -
06:40 17,0 13,5 9,7 NNW 17,7 1020,9 80 -
06:45 17,0 13,5 6,4 WNW 17,7 1020,9 80 -
06:50 17,0 13,5 6,4 NW 17,7 1020,9 80 -
06:55 17,0 13,5 4,8 WNW 14,5 1020,9 80 -
07:00 17,0 13,5 4,8 Westen 14,5 1021,9 80 -
07:05 17,0 13,5 4,8 NW 9,7 1021,9 80 -
07:10 17,0 13,5   Windstille 9,7 1021,9 80 -
07:15 17,0 13,3   Windstille 9,7 1020,9 79 -
07:20 17,0 13,3   Windstille 9,7 1020,9 79 -
07:25 17,1 13,4   Windstille 6,4 1020,9 79 -
07:30 17,1 13,4   Windstille   1021,9 79 -
07:35 17,1 13,4   Windstille   1021,9 79 -
07:40 17,2 13,5   Windstille   1021,9 79 -
07:45 17,3 13,6   Windstille 4,8 1021,9 79 -
07:50 17,3 13,6   Windstille 4,8 1021,9 79 -
07:55 17,4 13,7   Windstille 4,8 1021,9 79 -
08:00 17,5 13,8   Windstille 4,8 1021,9 79 -
08:05 17,5 13,8   Windstille   1021,9 79 -
08:10 17,6 13,9 3,2 SW   1021,9 79 -
08:15 17,6 13,7   Windstille 4,8 1021,9 78 -
08:20 17,6 13,7 6,4 WSW 4,8 1021,9 78 -
08:25 17,6 13,7 4,8 Süden 8,0 1021,9 78 -
08:30 17,6 13,7 3,2 Süden 8,0 1021,9 78 -
08:35 17,6 13,7 6,4 Süden 8,0 1021,9 78 -
08:40 17,6 13,7 9,7 WSW 9,7 1021,9 78 -
08:45 17,5 13,6 4,8 WSW 9,7 1021,9 78 -
08:50 17,5 13,6 6,4 WNW 9,7 1021,9 78 -
08:55 17,6 13,7 6,4 WNW 9,7 1021,9 78 -
09:00 17,6 13,7 4,8 WSW 9,7 1021,9 78 -
09:05 17,6 13,7 6,4 SW 9,7 1021,9 78 -
09:10 17,6 13,7 6,4 WSW 9,7 1021,9 78 -
09:15 17,7 13,8 4,8 WSW 9,7 1021,9 78 -
09:20 17,8 13,9 8,0 SSW 9,7 1021,9 78 -
09:25 17,9 13,6 4,8 SW 9,7 1021,9 76 -
09:30 17,9 13,6 3,2 WNW 9,7 1021,9 76 -
09:35 18,0 13,7 6,4 Süden 9,7 1021,9 76 -
09:40 18,2 14,3 8,0 WSW 9,7 1021,9 78 -
09:45 18,4 14,5 11,3 WSW 12,9 1021,9 78 -
09:50 18,5 14,2 6,4 Süden 12,9 1021,9 76 -
09:55 18,5 14,2 6,4 SSW 12,9 1021,9 76 -
10:00 18,5 14,2 4,8 WSW 12,9 1021,9 76 -
10:05 18,5 14,2 6,4 WNW 12,9 1021,9 76 -
10:10 18,6 14,3 8,0 Westen 12,9 1021,9 76 -
10:15 18,7 14,8 6,4 WSW 12,9 1021,9 78 -
10:20 19,2 15,5 4,8 SW 9,7 1021,9 79 -
10:25 19,4 15,5 6,4 SW 9,7 1021,9 78 -
10:30 19,3 14,8 6,4 NW 9,7 1021,9 75 -
10:35 19,3 14,5 4,8 SW 9,7 1021,9 74 -
10:40 19,6 14,8 4,8 Süden 9,7 1021,9 74 -
10:45 19,5 14,5 9,7 SSW 9,7 1021,9 73 -
10:50 19,5 14,3 6,4 SSW 9,7 1021,9 72 -
10:55 19,7 14,5 6,4 SW 9,7 1021,9 72 -
11:00 20,1 15,1 4,8 WSW 9,7 1022,9 73 -
11:05 20,4 15,0 9,7 OSO 9,7 1022,9 71 -
11:10 20,5 14,4 8,0 OSO 9,7 1022,9 68 -
11:15 20,5 14,2 6,4 Süden 11,3 1021,9 67 -
11:20 20,5 13,9   Windstille 11,3 1021,9 66 -
11:25 20,8 14,4 3,2 NNW 9,7 1021,9 67 -
11:30 21,3 15,2 9,7 SW 9,7 1022,9 68 -
11:35 21,5 15,1 6,4 SSW 9,7 1022,9 67 -
11:40 21,8 15,9 9,7 WSW 9,7 1022,9 69 -
11:45 21,7 14,8 8,0 Süden 12,9 1022,9 65 -
11:50 21,7 15,3 8,0 WSW 12,9 1022,9 67 -
11:55 21,5 14,9 6,4 SSW 12,9 1022,9 66 -
12:00 21,4 15,0 6,4 SSW 12,9 1022,9 67 -
12:05 21,3 14,7 6,4 Westen 12,9 1022,9 66 -
12:10 21,3 14,5 9,7 SSW 9,7 1022,9 65 -
12:15 21,4 14,8 8,0 WSW 12,9 1022,9 66 -
12:20 21,8 15,9 8,0 WSW 16,1 1022,9 69 -
12:25 21,7 14,6 12,9 SSW 16,1 1022,9 64 -
12:30 21,5 14,4 8,0 SSW 16,1 1022,9 64 -
12:35 21,3 14,0 6,4 SSO 12,9 1022,9 63 -
12:40 21,2 14,4 6,4 SW 12,9 1022,9 65 -
12:45 21,1 14,3 8,0 WSW 12,9 1022,9 65 -
12:50 21,2 14,6 8,0 WSW 12,9 1022,9 66 -
12:55 21,6 15,0 8,0 WNW 12,9 1022,9 66 -
13:00 21,9 14,8 9,7 SW 14,5 1022,9 64 -
13:05 22,2 14,8 11,3 WSW 14,5 1022,9 63 -
13:10 22,2 14,8 4,8 WNW 14,5 1022,9 63 -
13:15 22,1 14,2 9,7 WNW 12,9 1022,9 61 -
13:20 21,8 14,2 6,4 SW 12,9 1022,9 62 -
13:25 21,7 14,6 6,4 NW 14,5 1022,9 64 -
13:30 21,7 14,6 8,0 WSW 14,5 1022,9 64 -
13:35 21,6 14,3 9,7 Westen 14,5 1022,9 63 -
13:40 21,7 14,6 4,8 WNW 12,9 1022,9 64 -
13:45 21,8 14,7 4,8 SW 12,9 1022,9 64 -
13:50 21,8 14,2 8,0 NW 12,9 1022,9 62 -
13:55 21,8 14,4 4,8 SW 12,9 1022,9 63 -
14:00 21,9 14,5 6,4 SW 12,9 1022,9 63 -
14:05 21,9 14,3 8,0 SW 9,7 1022,9 62 -
14:10 21,9 14,5 4,8 SSW 9,7 1022,9 63 -
14:15 21,8 14,4 6,4 SSW 9,7 1022,9 63 -
14:20 21,7 14,3 9,7 WSW 12,9 1022,9 63 -
14:25 21,8 14,7 4,8 NW 12,9 1022,9 64 -
14:30 21,7 14,3 6,4 SSW 12,9 1022,9 63 -
14:35 21,6 14,0 9,7 SW 9,7 1022,9 62 -
14:40 21,6 14,0 6,4 WSW 9,7 1022,9 62 -
14:45 21,5 13,7 4,8 WNW 9,7 1022,9 61 -
14:50 21,5 13,7 4,8 SW 9,7 1022,9 61 -
14:55 21,6 14,0 6,4 SW 9,7 1022,9 62 -
15:00 21,5 13,7 4,8 WSW 9,7 1022,9 61 -
15:05 21,6 13,8 6,4 SSW 9,7 1022,9 61 -
15:10 21,6 13,8 6,4 Westen 9,7 1022,9 61 -
15:15 21,6 13,8 4,8 SW 9,7 1022,9 61 -
15:20 21,6 13,8 3,2 WSW 8,0 1022,9 61 -
15:25 21,5 13,7   Windstille 8,0 1022,9 61 -
15:30 21,5 13,7 3,2 Westen 8,0 1022,9 61 -
15:35 21,4 13,6   Windstille 6,4 1022,9 61 -
15:40 21,4 13,6 4,8 Westen 9,7 1022,9 61 -
15:45 21,3 13,5 6,4 NW 9,7 1022,9 61 -
15:50 21,1 13,3 3,2 NW 9,7 1022,9 61 -
15:55 21,0 13,4   Windstille 9,7 1022,9 62 -
16:00 20,9 13,3 6,4 WNW 9,7 1022,9 62 -
16:05 20,8 13,3 4,8 WSW 8,0 1022,9 62 -
16:10 20,7 13,4 4,8 WNW 9,7 1022,9 63 -
16:15 20,6 13,3   Windstille 9,7 1022,9 63 -
16:20 20,5 13,5 9,7 NW 9,7 1022,9 64 -
16:25 20,4 13,4 4,8 NW 8,0 1022,9 64 -
16:30 20,4 13,6 8,0 NNW 9,7 1022,9 65 -
16:35 20,4 13,6 8,0 NNW 9,7 1022,9 65 -
16:40 20,4 13,8 6,4 NNW 12,9 1022,9 66 -
16:45 20,4 13,8 6,4 NW 12,9 1022,9 66 -
16:50 20,4 13,8 4,8 WNW 12,9 1022,9 66 -
16:55 20,5 13,9 9,7 WNW 9,7 1022,9 66 -
17:00 20,4 13,6 6,4 NW 9,7 1022,9 65 -
17:05 20,4 13,6 6,4 NW 9,7 1022,9 65 -
17:10 20,4 13,6 6,4 NW 9,7 1022,9 65 -
17:15 20,4 13,6 6,4 NNW 8,0 1022,9 65 -
17:20 20,5 13,9 6,4 NNW 8,0 1022,9 66 -
17:25 20,6 13,8 6,4 WNW 8,0 1022,9 65 -
17:30 20,6 13,8   Windstille 8,0 1022,9 65 -
17:35 20,6 13,8   Windstille 8,0 1022,9 65 -
17:40 20,6 13,6   Windstille 8,0 1022,9 64 -
17:45 20,5 13,5   Windstille 6,4 1022,9 64 -
17:50 20,4 13,1 4,8 WSW   1022,9 63 -
17:55 20,2 12,9 4,8 WNW 8,0 1022,9 63 -
18:00 20,1 12,8 4,8 Westen 8,0 1022,9 63 -
18:05 20,0 12,7 6,4 WSW 8,0 1022,9 63 -
18:10 19,9 12,9   Windstille 8,0 1022,9 64 -
18:15 19,8 12,8   Windstille 6,4 1022,9 64 -
18:20 19,7 12,7   Windstille 6,4 1022,9 64 -
18:25 19,6 12,8   Windstille 6,4 1022,9 65 -
18:30 19,5 12,7   Windstille 4,8 1022,9 65 -
18:35 19,5 12,7   Windstille 4,8 1022,9 65 -
18:40 19,4 12,9   Windstille 4,8 1022,9 66 -
18:45 19,3 12,6   Windstille 3,2 1022,9 65 -
18:50 19,3 12,6   Windstille   1022,9 65 -
18:55 19,2 12,7   Windstille   1022,9 66 -
19:00 19,2 12,7   Windstille   1022,9 66 -
19:05 19,1 12,8   Windstille   1022,9 67 -
19:10 19,1 13,1   Windstille   1022,9 68 -
19:15 19,0 13,0   Windstille   1022,9 68 -
19:20 19,0 13,0   Windstille   1022,9 68 -
19:25 18,9 13,1   Windstille   1022,9 69 -
19:30 18,9 13,3   Windstille   1022,9 70 -
19:35 18,9 13,3   Windstille   1022,9 70 -
19:40 18,9 13,5   Windstille   1022,9 71 -
19:45 18,8 13,4   Windstille   1022,9 71 -
19:50 18,8 13,2   Windstille   1022,9 70 -
19:55 18,8 13,4   Windstille   1022,9 71 -
20:00 18,7 13,3   Windstille   1022,9 71 -
20:05 18,7 13,1   Windstille   1022,9 70 -
20:10 18,6 13,0   Windstille   1022,9 70 -
20:15 18,5 12,9   Windstille   1023,9 70 -
20:20 18,4 13,0   Windstille   1023,9 71 -
20:25 18,4 13,0   Windstille   1023,9 71 -
20:30 18,3 13,2   Windstille   1023,9 72 -
20:35 18,2 12,9   Windstille   1023,9 71 -
20:40 18,0 12,9   Windstille   1023,9 72 -
20:45 17,9 12,8   Windstille   1023,9 72 -
20:50 17,8 12,7   Windstille   1023,9 72 -
20:55 17,6 12,5   Windstille   1023,9 72 -
21:00 17,5 12,4 3,2 SW   1022,9 72 -
21:05 17,4 12,3   Windstille 4,8 1022,9 72 -
21:10 17,2 12,1   Windstille 4,8 1022,9 72 -
21:15 17,0 11,9   Windstille 4,8 1023,9 72 -
21:20 16,8 11,9   Windstille   1023,9 73 -
21:25 16,5 11,6   Windstille   1023,9 73 -
21:30 16,3 11,7   Windstille   1023,9 74 -
21:35 16,2 11,6   Windstille   1023,9 74 -
21:40 16,0 11,4   Windstille   1023,9 74 -
21:45 15,8 11,2   Windstille   1023,9 74 -
21:50 15,5 10,9   Windstille   1023,9 74 -
21:55 15,4 11,0   Windstille   1023,9 75 -
22:00 15,2 11,0   Windstille   1023,9 76 -
22:05 15,0 10,8   Windstille   1023,9 76 -
22:10 14,8 10,6   Windstille   1023,9 76 -
22:15 14,7 10,5   Windstille   1023,9 76 -
22:20 14,5 10,7 4,8 NNW   1023,9 78 -
Täglich Zusammenfassung für Montag 19 August 2019
Zeit Temp. ( °C ) Taupt. ( °C ) Wind ( km/h ) von Windböen ( km/h ) Luftdruck ( hPa ) Luftf.( % ) Regenrate ( cm )
Hoch22,2 15,9 20,9 NNW ( 377/1356 ) 35,4 1023,9 80 2,00
Durchchnittswerte18,6 13,1 5,0 Windstille #99/269 9,0 1021,4 71 3,10
Tief14,5 9,9 -   0,0 1016,8 61 -
Täglich tabellarische Details für Montag 19 August 2019
Zeit Temp. ( °C ) Taupt. ( °C ) Wind ( km/h ) von Windböen ( km/h ) Luftdruck ( hPa ) Luftf.( % ) Regenrate ( cm )
00:00 15,8 10,1   Windstille 4,8 1017,8 69 -
00:05 15,8 10,3 4,8 Norden   1017,8 70 -
00:10 15,9 10,2   Windstille 4,8 1017,8 69 -
00:15 15,9 10,4   Windstille 4,8 1016,8 70 -
00:20 16,0 10,3   Windstille 4,8 1016,8 69 -
00:25 15,9 10,2   Windstille 4,8 1016,8 69 -
00:30 15,9 10,2 4,8 NNW   1016,8 69 -
00:35 15,8 10,1   Windstille 4,8 1016,8 69 -
00:40 15,8 10,3 3,2 NNW 4,8 1016,8 70 -
00:45 15,9 10,4   Windstille 6,4 1016,8 70 -
00:50 15,9 10,4   Windstille 6,4 1016,8 70 -
00:55 15,8 10,3   Windstille 6,4 1016,8 70 -
01:00 15,8 10,3   Windstille 4,8 1016,8 70 -
01:05 15,9 10,2   Windstille 6,4 1016,8 69 -
01:10 15,8 10,1 3,2 NNW 6,4 1016,8 69 -
01:15 15,8 10,1   Windstille 6,4 1016,8 69 -
01:20 15,8 10,1   Windstille 6,4 1016,8 69 -
01:25 15,8 10,1   Windstille 6,4 1016,8 69 -
01:30 15,7 10,0   Windstille   1016,8 69 -
01:35 15,6 9,9   Windstille   1016,8 69 -
01:40 15,6 10,1 4,8 NO   1016,8 70 -
01:45 15,6 10,1   Windstille 6,4 1016,8 70 -
01:50 15,7 10,2   Windstille 6,4 1016,8 70 -
01:55 15,7 10,5   Windstille 6,4 1016,8 71 -
02:00 15,8 10,3   Windstille 4,8 1016,8 70 -
02:05 15,8 10,6   Windstille   1016,8 71 -
02:10 15,8 10,6   Windstille   1016,8 71 -
02:15 15,9 10,6   Windstille   1016,8 71 -
02:20 16,0 11,0   Windstille   1016,8 72 -
02:25 16,1 11,1   Windstille   1016,8 72 -
02:30 16,2 11,1   Windstille   1016,8 72 -
02:35 16,3 11,2   Windstille   1016,8 72 -
02:40 16,4 11,5   Windstille   1016,8 73 -
02:45 16,4 11,5 9,7 NW   1016,8 73 -
02:50 16,6 11,5 9,7 Norden 8,0 1016,8 72 -
02:55 16,8 11,9 4,8 NNO 12,9 1016,8 73 0,30
03:00 16,9 12,2 4,8 Norden 12,9 1017,8 74 1,30
03:05 16,9 12,4 11,3 NNW 12,9 1017,8 75 1,50
03:10 17,0 12,3 8,0 NNW 14,5 1017,8 74 2,00
03:15 17,0 12,5 4,8 NNW 14,5 1017,8 75 2,00
03:20 17,0 12,5 4,8 NW 14,5 1017,8 75 2,00
03:25 17,0 12,5 9,7 Norden 12,9 1017,8 75 2,00
03:30 17,0 12,5 12,9 NW 11,3 1017,8 75 2,00
03:35 17,2 12,7 17,7 NNW 14,5 1017,8 75 2,00
03:40 17,3 12,8 9,7 NW 14,5 1017,8 75 2,00
03:45 17,4 12,9 8,0 NNW 17,7 1018,8 75 2,00
03:50 17,5 13,0 12,9 NNW 17,7 1018,8 75 2,00
03:55 17,5 13,0 9,7 NNW 17,7 1018,8 75 1,30
04:00 17,6 13,1 12,9 NNW 17,7 1018,8 75 0,50
04:05 17,6 13,3 9,7 Norden 14,5 1018,8 76 0,30
04:10 17,7 13,2 12,9 WNW 16,1 1018,8 75 -
04:15 17,7 13,2 12,9 NNW 16,1 1018,8 75 -
04:20 17,7 13,2 8,0 NNW 16,1 1018,8 75 -
04:25 17,7 13,2 14,5 NNW 19,3 1018,8 75 -
04:30 17,7 13,2 9,7 NNW 19,3 1018,8 75 -
04:35 17,7 13,2 16,1 NNW 19,3 1018,8 75 -
04:40 17,6 13,1 12,9 NW 14,5 1018,8 75 -
04:45 17,6 13,1 12,9 NNW 16,1 1018,8 75 -
04:50 17,6 13,1 6,4 NNW 16,1 1018,8 75 -
04:55 17,6 13,1 8,0 NW 16,1 1018,8 75 -
05:00 17,6 13,1 8,0 NW 16,1 1018,8 75 -
05:05 17,6 13,1 9,7 NW 16,1 1018,8 75 -
05:10 17,6 13,1 12,9 NNW 16,1 1018,8 75 -
05:15 17,7 13,2 14,5 NW 16,1 1019,9 75 -
05:20 17,7 13,2 17,7 NW 17,7 1019,9 75 -
05:25 17,7 13,2 14,5 NNW 17,7 1019,9 75 -
05:30 17,8 13,3 14,5 NNW 24,1 1019,9 75 -
05:35 17,8 13,5 17,7 Norden 24,1 1019,9 76 -
05:40 17,8 13,5 12,9 NNW 24,1 1019,9 76 -
05:45 17,7 13,4 16,1 NNW 24,1 1020,9 76 -
05:50 17,7 13,4 20,9 WNW 29,0 1020,9 76 -
05:55 17,6 13,7 17,7 NW 35,4 1020,9 78 -
06:00 17,5 13,6 17,7 NNW 35,4 1020,9 78 -
06:05 17,4 13,5 16,1 NW 27,4 1020,9 78 -
06:10 17,3 13,4 19,3 NNW 25,7 1020,9 78 -
06:15 17,3 13,4 12,9 NNW 24,1 1020,9 78 -
06:20 17,1 13,4 12,9 NNW 24,1 1020,9 79 -
06:25 17,1 13,4 9,7 Norden 19,3 1020,9 79 -
06:30 17,0 13,3 12,9 NNW 17,7 1020,9 79 -
06:35 17,0 13,3 12,9 NW 17,7 1020,9 79 -
06:40 17,0 13,5 9,7 NNW 17,7 1020,9 80 -
06:45 17,0 13,5 6,4 WNW 17,7 1020,9 80 -
06:50 17,0 13,5 6,4 NW 17,7 1020,9 80 -
06:55 17,0 13,5 4,8 WNW 14,5 1020,9 80 -
07:00 17,0 13,5 4,8 Westen 14,5 1021,9 80 -
07:05 17,0 13,5 4,8 NW 9,7 1021,9 80 -
07:10 17,0 13,5   Windstille 9,7 1021,9 80 -
07:15 17,0 13,3   Windstille 9,7 1020,9 79 -
07:20 17,0 13,3   Windstille 9,7 1020,9 79 -
07:25 17,1 13,4   Windstille 6,4 1020,9 79 -
07:30 17,1 13,4   Windstille   1021,9 79 -
07:35 17,1 13,4   Windstille   1021,9 79 -
07:40 17,2 13,5   Windstille   1021,9 79 -
07:45 17,3 13,6   Windstille 4,8 1021,9 79 -
07:50 17,3 13,6   Windstille 4,8 1021,9 79 -
07:55 17,4 13,7   Windstille 4,8 1021,9 79 -
08:00 17,5 13,8   Windstille 4,8 1021,9 79 -
08:05 17,5 13,8   Windstille   1021,9 79 -
08:10 17,6 13,9 3,2 SW   1021,9 79 -
08:15 17,6 13,7   Windstille 4,8 1021,9 78 -
08:20 17,6 13,7 6,4 WSW 4,8 1021,9 78 -
08:25 17,6 13,7 4,8 Süden 8,0 1021,9 78 -
08:30 17,6 13,7 3,2 Süden 8,0 1021,9 78 -
08:35 17,6 13,7 6,4 Süden 8,0 1021,9 78 -
08:40 17,6 13,7 9,7 WSW 9,7 1021,9 78 -
08:45 17,5 13,6 4,8 WSW 9,7 1021,9 78 -
08:50 17,5 13,6 6,4 WNW 9,7 1021,9 78 -
08:55 17,6 13,7 6,4 WNW 9,7 1021,9 78 -
09:00 17,6 13,7 4,8 WSW 9,7 1021,9 78 -
09:05 17,6 13,7 6,4 SW 9,7 1021,9 78 -
09:10 17,6 13,7 6,4 WSW 9,7 1021,9 78 -
09:15 17,7 13,8 4,8 WSW 9,7 1021,9 78 -
09:20 17,8 13,9 8,0 SSW 9,7 1021,9 78 -
09:25 17,9 13,6 4,8 SW 9,7 1021,9 76 -
09:30 17,9 13,6 3,2 WNW 9,7 1021,9 76 -
09:35 18,0 13,7 6,4 Süden 9,7 1021,9 76 -
09:40 18,2 14,3 8,0 WSW 9,7 1021,9 78 -
09:45 18,4 14,5 11,3 WSW 12,9 1021,9 78 -
09:50 18,5 14,2 6,4 Süden 12,9 1021,9 76 -
09:55 18,5 14,2 6,4 SSW 12,9 1021,9 76 -
10:00 18,5 14,2 4,8 WSW 12,9 1021,9 76 -
10:05 18,5 14,2 6,4 WNW 12,9 1021,9 76 -
10:10 18,6 14,3 8,0 Westen 12,9 1021,9 76 -
10:15 18,7 14,8 6,4 WSW 12,9 1021,9 78 -
10:20 19,2 15,5 4,8 SW 9,7 1021,9 79 -
10:25 19,4 15,5 6,4 SW 9,7 1021,9 78 -
10:30 19,3 14,8 6,4 NW 9,7 1021,9 75 -
10:35 19,3 14,5 4,8 SW 9,7 1021,9 74 -
10:40 19,6 14,8 4,8 Süden 9,7 1021,9 74 -
10:45 19,5 14,5 9,7 SSW 9,7 1021,9 73 -
10:50 19,5 14,3 6,4 SSW 9,7 1021,9 72 -
10:55 19,7 14,5 6,4 SW 9,7 1021,9 72 -
11:00 20,1 15,1 4,8 WSW 9,7 1022,9 73 -
11:05 20,4 15,0 9,7 OSO 9,7 1022,9 71 -
11:10 20,5 14,4 8,0 OSO 9,7 1022,9 68 -
11:15 20,5 14,2 6,4 Süden 11,3 1021,9 67 -
11:20 20,5 13,9   Windstille 11,3 1021,9 66 -
11:25 20,8 14,4 3,2 NNW 9,7 1021,9 67 -
11:30 21,3 15,2 9,7 SW 9,7 1022,9 68 -
11:35 21,5 15,1 6,4 SSW 9,7 1022,9 67 -
11:40 21,8 15,9 9,7 WSW 9,7 1022,9 69 -
11:45 21,7 14,8 8,0 Süden 12,9 1022,9 65 -
11:50 21,7 15,3 8,0 WSW 12,9 1022,9 67 -
11:55 21,5 14,9 6,4 SSW 12,9 1022,9 66 -
12:00 21,4 15,0 6,4 SSW 12,9 1022,9 67 -
12:05 21,3 14,7 6,4 Westen 12,9 1022,9 66 -
12:10 21,3 14,5 9,7 SSW 9,7 1022,9 65 -
12:15 21,4 14,8 8,0 WSW 12,9 1022,9 66 -
12:20 21,8 15,9 8,0 WSW 16,1 1022,9 69 -
12:25 21,7 14,6 12,9 SSW 16,1 1022,9 64 -
12:30 21,5 14,4 8,0 SSW 16,1 1022,9 64 -
12:35 21,3 14,0 6,4 SSO 12,9 1022,9 63 -
12:40 21,2 14,4 6,4 SW 12,9 1022,9 65 -
12:45 21,1 14,3 8,0 WSW 12,9 1022,9 65 -
12:50 21,2 14,6 8,0 WSW 12,9 1022,9 66 -
12:55 21,6 15,0 8,0 WNW 12,9 1022,9 66 -
13:00 21,9 14,8 9,7 SW 14,5 1022,9 64 -
13:05 22,2 14,8 11,3 WSW 14,5 1022,9 63 -
13:10 22,2 14,8 4,8 WNW 14,5 1022,9 63 -
13:15 22,1 14,2 9,7 WNW 12,9 1022,9 61 -
13:20 21,8 14,2 6,4 SW 12,9 1022,9 62 -
13:25 21,7 14,6 6,4 NW 14,5 1022,9 64 -
13:30 21,7 14,6 8,0 WSW 14,5 1022,9 64 -
13:35 21,6 14,3 9,7 Westen 14,5 1022,9 63 -
13:40 21,7 14,6 4,8 WNW 12,9 1022,9 64 -
13:45 21,8 14,7 4,8 SW 12,9 1022,9 64 -
13:50 21,8 14,2 8,0 NW 12,9 1022,9 62 -
13:55 21,8 14,4 4,8 SW 12,9 1022,9 63 -
14:00 21,9 14,5 6,4 SW 12,9 1022,9 63 -
14:05 21,9 14,3 8,0 SW 9,7 1022,9 62 -
14:10 21,9 14,5 4,8 SSW 9,7 1022,9 63 -
14:15 21,8 14,4 6,4 SSW 9,7 1022,9 63 -
14:20 21,7 14,3 9,7 WSW 12,9 1022,9 63 -
14:25 21,8 14,7 4,8 NW 12,9 1022,9 64 -
14:30 21,7 14,3 6,4 SSW 12,9 1022,9 63 -
14:35 21,6 14,0 9,7 SW 9,7 1022,9 62 -
14:40 21,6 14,0 6,4 WSW 9,7 1022,9 62 -
14:45 21,5 13,7 4,8 WNW 9,7 1022,9 61 -
14:50 21,5 13,7 4,8 SW 9,7 1022,9 61 -
14:55 21,6 14,0 6,4 SW 9,7 1022,9 62 -
15:00 21,5 13,7 4,8 WSW 9,7 1022,9 61 -
15:05 21,6 13,8 6,4 SSW 9,7 1022,9 61 -
15:10 21,6 13,8 6,4 Westen 9,7 1022,9 61 -
15:15 21,6 13,8 4,8 SW 9,7 1022,9 61 -
15:20 21,6 13,8 3,2 WSW 8,0 1022,9 61 -
15:25 21,5 13,7   Windstille 8,0 1022,9 61 -
15:30 21,5 13,7 3,2 Westen 8,0 1022,9 61 -
15:35 21,4 13,6   Windstille 6,4 1022,9 61 -
15:40 21,4 13,6 4,8 Westen 9,7 1022,9 61 -
15:45 21,3 13,5 6,4 NW 9,7 1022,9 61 -
15:50 21,1 13,3 3,2 NW 9,7 1022,9 61 -
15:55 21,0 13,4   Windstille 9,7 1022,9 62 -
16:00 20,9 13,3 6,4 WNW 9,7 1022,9 62 -
16:05 20,8 13,3 4,8 WSW 8,0 1022,9 62 -
16:10 20,7 13,4 4,8 WNW 9,7 1022,9 63 -
16:15 20,6 13,3   Windstille 9,7 1022,9 63 -
16:20 20,5 13,5 9,7 NW 9,7 1022,9 64 -
16:25 20,4 13,4 4,8 NW 8,0 1022,9 64 -
16:30 20,4 13,6 8,0 NNW 9,7 1022,9 65 -
16:35 20,4 13,6 8,0 NNW 9,7 1022,9 65 -
16:40 20,4 13,8 6,4 NNW 12,9 1022,9 66 -
16:45 20,4 13,8 6,4 NW 12,9 1022,9 66 -
16:50 20,4 13,8 4,8 WNW 12,9 1022,9 66 -
16:55 20,5 13,9 9,7 WNW 9,7 1022,9 66 -
17:00 20,4 13,6 6,4 NW 9,7 1022,9 65 -
17:05 20,4 13,6 6,4 NW 9,7 1022,9 65 -
17:10 20,4 13,6 6,4 NW 9,7 1022,9 65 -
17:15 20,4 13,6 6,4 NNW 8,0 1022,9 65 -
17:20 20,5 13,9 6,4 NNW 8,0 1022,9 66 -
17:25 20,6 13,8 6,4 WNW 8,0 1022,9 65 -
17:30 20,6 13,8   Windstille 8,0 1022,9 65 -
17:35 20,6 13,8   Windstille 8,0 1022,9 65 -
17:40 20,6 13,6   Windstille 8,0 1022,9 64 -
17:45 20,5 13,5   Windstille 6,4 1022,9 64 -
17:50 20,4 13,1 4,8 WSW   1022,9 63 -
17:55 20,2 12,9 4,8 WNW 8,0 1022,9 63 -
18:00 20,1 12,8 4,8 Westen 8,0 1022,9 63 -
18:05 20,0 12,7 6,4 WSW 8,0 1022,9 63 -
18:10 19,9 12,9   Windstille 8,0 1022,9 64 -
18:15 19,8 12,8   Windstille 6,4 1022,9 64 -
18:20 19,7 12,7   Windstille 6,4 1022,9 64 -
18:25 19,6 12,8   Windstille 6,4 1022,9 65 -
18:30 19,5 12,7   Windstille 4,8 1022,9 65 -
18:35 19,5 12,7   Windstille 4,8 1022,9 65 -
18:40 19,4 12,9   Windstille 4,8 1022,9 66 -
18:45 19,3 12,6   Windstille 3,2 1022,9 65 -
18:50 19,3 12,6   Windstille   1022,9 65 -
18:55 19,2 12,7   Windstille   1022,9 66 -
19:00 19,2 12,7   Windstille   1022,9 66 -
19:05 19,1 12,8   Windstille   1022,9 67 -
19:10 19,1 13,1   Windstille   1022,9 68 -
19:15 19,0 13,0   Windstille   1022,9 68 -
19:20 19,0 13,0   Windstille   1022,9 68 -
19:25 18,9 13,1   Windstille   1022,9 69 -
19:30 18,9 13,3   Windstille   1022,9 70 -
19:35 18,9 13,3   Windstille   1022,9 70 -
19:40 18,9 13,5   Windstille   1022,9 71 -
19:45 18,8 13,4   Windstille   1022,9 71 -
19:50 18,8 13,2   Windstille   1022,9 70 -
19:55 18,8 13,4   Windstille   1022,9 71 -
20:00 18,7 13,3   Windstille   1022,9 71 -
20:05 18,7 13,1   Windstille   1022,9 70 -
20:10 18,6 13,0   Windstille   1022,9 70 -
20:15 18,5 12,9   Windstille   1023,9 70 -
20:20 18,4 13,0   Windstille   1023,9 71 -
20:25 18,4 13,0   Windstille   1023,9 71 -
20:30 18,3 13,2   Windstille   1023,9 72 -
20:35 18,2 12,9   Windstille   1023,9 71 -
20:40 18,0 12,9   Windstille   1023,9 72 -
20:45 17,9 12,8   Windstille   1023,9 72 -
20:50 17,8 12,7   Windstille   1023,9 72 -
20:55 17,6 12,5   Windstille   1023,9 72 -
21:00 17,5 12,4 3,2 SW   1022,9 72 -
21:05 17,4 12,3   Windstille 4,8 1022,9 72 -
21:10 17,2 12,1   Windstille 4,8 1022,9 72 -
21:15 17,0 11,9   Windstille 4,8 1023,9 72 -
21:20 16,8 11,9   Windstille   1023,9 73 -
21:25 16,5 11,6   Windstille   1023,9 73 -
21:30 16,3 11,7   Windstille   1023,9 74 -
21:35 16,2 11,6   Windstille   1023,9 74 -
21:40 16,0 11,4   Windstille   1023,9 74 -
21:45 15,8 11,2   Windstille   1023,9 74 -
21:50 15,5 10,9   Windstille   1023,9 74 -
21:55 15,4 11,0   Windstille   1023,9 75 -
22:00 15,2 11,0   Windstille   1023,9 76 -
22:05 15,0 10,8   Windstille   1023,9 76 -
22:10 14,8 10,6   Windstille   1023,9 76 -
22:15 14,7 10,5   Windstille   1023,9 76 -
22:20 14,5 10,7 4,8 NNW   1023,9 78 -

Lade ein Kopie deiner Daten  here

Meine Wetterdaten gespeichert auf Weather Underground. Script entwickelt von Jim McMurry. Angepasst für das Template von Leuven-Template.eu